Location: Unspecified
(34.4950°S, 58.5160°W)
Time: 00:22:43
(UTC+00:00)

H-2A ROCKET BODY - Pass Details

Date: 19 April 2026
Orbit: 237 x 10622 km, 28.6° (Epoch: 12 May)

Event Time Altitude Azimuth Distance (km) Brightness Sun altitude
Exits shadow 08:34:35 - 302° (WNW) 9,839 7.1 -22.5°
Reaches altitude 10° 08:36:56 10° 303° (WNW) 9,240 7.0 -22.0°
Maximum altitude 09:00:20 45° 6° (N) 2,409 4.5 -17.2°
Drops below altitude 10° 09:06:40 10° 78° (ENE) 2,703 6.1 -15.9°
Sets 09:08:21 0° 86° (E) 3,230 7.2 -15.5°
